Location: Wien
(48.2082°N, 16.3738°E)
Time: 14:37:26
(UTC+02:00)

MOZHAYETS 4 - Pass Details

Date: 22 March 2019
Orbit: 663 x 679 km, 98.0° (Epoch: 25 April)

Event Time Altitude Azimuth Distance (km) Brightness Sun altitude
Exits shadow 01:51:50 14° 350° (N) 1,834 10.4 -35.8°
Drops below altitude 10° 01:52:31 10° 349° (N) 2,111 10.7 -35.7°
Sets 01:54:46 0° 348° (NNW) 3,032 11.6 -35.5°
